TimeEET,TemperatureF,Dew PointF,Humidity,Sea Level PressureIn,VisibilityMPH,Wind Direction,Wind SpeedMPH,Gust SpeedMPH,PrecipitationIn,Events,Conditions,WindDirDegrees,DateUTC
12:00 AM,77.0,48.2,36,29.83,-9999.0,WNW,8.1,-,N/A,,Clear,300,2012-10-09 22:00:00
1:00 AM,77.0,48.2,36,29.83,-9999.0,WNW,8.1,-,N/A,,Clear,300,2012-10-09 23:00:00
2:00 AM,77,49,27,29.83,6,NW,10.4,,,,,310,2012-10-10 00:00:00
2:00 AM,77.0,50.0,39,29.83,-9999.0,NW,10.4,-,N/A,,Clear,310,2012-10-10 00:00:00
3:00 AM,75.2,51.8,44,29.80,-9999.0,WNW,9.2,-,N/A,,Clear,300,2012-10-10 01:00:00
4:00 AM,75.2,55.4,50,29.80,-9999.0,NW,10.4,-,N/A,,Clear,310,2012-10-10 02:00:00
5:00 AM,75.2,55.4,50,29.83,-9999.0,WNW,15.0,-,N/A,,Clear,300,2012-10-10 03:00:00
6:00 AM,75.2,51.8,44,29.83,-9999.0,NW,13.8,-,N/A,,Clear,310,2012-10-10 04:00:00
7:00 AM,77.0,51.8,41,29.83,-9999.0,WNW,16.1,-,N/A,,Clear,300,2012-10-10 05:00:00
8:00 AM,81,53,28,29.85,6,NW,18.4,,,,Scattered Clouds,310,2012-10-10 06:00:00
8:00 AM,80.6,53.6,39,29.83,-9999.0,NW,18.4,-,N/A,,Clear,310,2012-10-10 06:00:00
9:00 AM,84.2,53.6,35,29.86,-9999.0,NW,17.3,-,N/A,,Clear,320,2012-10-10 07:00:00
10:00 AM,86.0,53.6,33,29.86,-9999.0,North,4.6,-,N/A,,Clear,350,2012-10-10 08:00:00
11:00 AM,86.0,55.4,35,29.83,-9999.0,North,10.4,-,N/A,,Clear,10,2012-10-10 09:00:00
12:00 PM,87.8,55.4,33,29.80,-9999.0,NNE,9.2,-,N/A,,Clear,30,2012-10-10 10:00:00
1:00 PM,87.8,57.2,35,29.77,-9999.0,NNE,10.4,-,N/A,,Clear,30,2012-10-10 11:00:00
2:00 PM,89,56,23,29.78,6,NE,9.2,,,,,40,2012-10-10 12:00:00
2:00 PM,89.6,55.4,31,29.77,-9999.0,NE,9.2,-,N/A,,Clear,40,2012-10-10 12:00:00
3:00 PM,89.6,57.2,33,29.77,-9999.0,East,6.9,-,N/A,,Clear,90,2012-10-10 13:00:00
4:00 PM,82.4,68.0,62,29.80,-9999.0,ENE,5.8,-,N/A,,Clear,70,2012-10-10 14:00:00
5:00 PM,87.8,60.8,40,29.77,-9999.0,ESE,4.6,-,N/A,,Clear,110,2012-10-10 15:00:00
6:00 PM,84.2,66.2,55,29.80,-9999.0,ESE,2.3,-,N/A,,Clear,120,2012-10-10 16:00:00
7:00 PM,84.2,66.2,55,29.80,-9999.0,ESE,3.5,-,N/A,,Clear,120,2012-10-10 17:00:00
8:00 PM,81,66,51,29.83,6,SE,3.5,,,,,130,2012-10-10 18:00:00
8:00 PM,80.6,66.2,61,29.83,-9999.0,SE,3.5,-,N/A,,Clear,130,2012-10-10 18:00:00
9:00 PM,78.8,55.4,44,29.83,-9999.0,WSW,4.6,-,N/A,,Clear,250,2012-10-10 19:00:00
10:00 PM,77.0,51.8,41,29.83,-9999.0,West,2.3,-,N/A,,Clear,270,2012-10-10 20:00:00
11:00 PM,77.0,51.8,41,29.83,-9999.0,West,2.3,-,N/A,,Clear,260,2012-10-10 21:00:00